Location: Newark
(46.7000°N, 60.6000°W)
Time: 13:58:21
(UTC+00:00)

A-11 Canister half - Pass Details

Date: 04 November 2020
Orbit: 1516 x 1684 km, 47.2° (Epoch: 03 December)

Event Time Altitude Azimuth Distance (km) Brightness Sun altitude
Rises 02:21:56 0° 280° (W) 4,930 12.0 -54.2°
Reaches altitude 10° 02:25:07 10° 280° (W) 3,931 11.4 -54.5°
Enters shadow 02:27:30 20° 280° (W) 3,199 10.8 -54.8°
